Weather History for Mullan Pass, ID

Change the Weather History Date:

Thursday, June 13, 2013

  Actual Average (K3TH) Record (K3TH)
Temperature  
Mean Temperature 44 °F -  
Max Temperature 52 °F 68 °F 81 °F (2002)
Min Temperature 37 °F 50 °F 44 °F (1999)
Degree Days  
Heating Degree Days 22    
Moisture  
Dew Point 33 °F    
Average Humidity 72    
Maximum Humidity 86    
Minimum Humidity 50    
Precipitation  
Precipitation 0.02 in - - ()
Sea Level Pressure  
Sea Level Pressure 29.93 in    
Wind  
Wind Speed 4 mph (NW)    
Max Wind Speed 8 mph    
Max Gust Speed -    
Visibility 10 miles    
Events Rain    
Averages and records for this station are not official NWS values.
T = Trace of Precipitation, MM = Missing Value Source: NWS Daily Summary

Daily Weather History Graph

Daily Weather History Graph

Search for Another Location

Airport:

Trip Planner

Search our weather history database for the weather conditions in past years. The results will help you decide how hot, cold, wet, or windy it might be!

Date:

Astronomy

Jun. 13, 2013 Rise Set
Actual Time 4:45 AM PDT 8:40 PM PDT
Civil Twilight 4:04 AM PDT 9:21 PM PDT
Nautical Twilight 3:09 AM PDT 10:16 PM PDT
Astronomical Twilight 1:43 AM PDT 11:43 PM PDT
Moon 9:42 AM PDT (6/13) 11:30 PM PDT (6/13)
Length of Visible Light 17h 16m
Length of Day
15h 55m
Waxing Crescent, 22% of the Moon is Illuminated
Jun 13
Waxing Crescent
Jun 16
First Quarter
Jun 23
Full
Jun 29
Last Quarter
Jul 8
New

Hourly Weather History & Observations

Time (PDT) Temp. Windchill Dew Point Humidity Pressure Visibility Wind Dir Wind Speed Gust Speed Precip Events Conditions
12:53 AM 41.0 °F 38.0 °F 35.1 °F 79% 29.90 in - Variable 4.6 mph - N/A   Overcast
1:53 AM 39.9 °F 36.7 °F 35.1 °F 83% 29.90 in - Variable 4.6 mph - N/A   Overcast
2:53 AM 39.9 °F 37.8 °F 34.0 °F 79% 29.91 in - West 3.5 mph - N/A   Overcast
3:53 AM 39.0 °F 36.8 °F 35.1 °F 86% 29.87 in - North 3.5 mph - N/A   Overcast
4:53 AM 37.9 °F 35.5 °F 33.1 °F 83% 29.90 in - Variable 3.5 mph - N/A   Partly Cloudy
5:53 AM 39.0 °F - 33.1 °F 79% 29.89 in - Calm Calm - N/A   Clear
6:37 AM 39.2 °F - 32.0 °F 75% 30.07 in - Calm Calm - N/A   Mostly Cloudy
6:48 AM 39.2 °F 37.0 °F 33.8 °F 81% 30.06 in - NW 3.5 mph - N/A   Scattered Clouds
6:53 AM 39.9 °F 37.8 °F 33.1 °F 77% 29.90 in - NW 3.5 mph - N/A   Scattered Clouds
7:53 AM 39.9 °F 36.7 °F 32.0 °F 73% 29.94 in 10.0 mi NNW 4.6 mph - N/A   Clear
8:53 AM 44.1 °F 41.5 °F 35.1 °F 71% 29.90 in - Variable 4.6 mph - N/A   Clear
9:53 AM 44.1 °F 40.1 °F 32.0 °F 63% 29.90 in 10.0 mi NNW 6.9 mph - N/A   Partly Cloudy
10:53 AM 48.9 °F - 30.9 °F 50% 29.89 in 10.0 mi Variable 6.9 mph - N/A   Clear
11:53 AM 44.1 °F 41.5 °F 30.9 °F 60% 29.96 in 10.0 mi Variable 4.6 mph - N/A   Overcast
12:53 PM 46.0 °F 42.5 °F 30.0 °F 54% 29.91 in 10.0 mi Variable 6.9 mph - N/A   Mostly Cloudy
1:53 PM 50.0 °F - 33.1 °F 52% 29.91 in 10.0 mi Variable 6.9 mph - N/A   Partly Cloudy
2:53 PM 48.0 °F - 32.0 °F 54% 29.92 in 10.0 mi WNW 5.8 mph - 0.00 in   Mostly Cloudy
3:53 PM 42.1 °F 39.2 °F 32.0 °F 67% 29.95 in 10.0 mi Variable 4.6 mph - 0.00 in   Overcast
4:53 PM 48.9 °F - 33.1 °F 54% 29.92 in 10.0 mi Variable 5.8 mph - N/A   Clear
5:53 PM 45.0 °F 43.5 °F 33.1 °F 63% 29.93 in 10.0 mi Variable 3.5 mph - N/A   Scattered Clouds
6:53 PM 39.0 °F 33.4 °F 34.0 °F 82% 29.95 in 8.0 mi NNW 8.1 mph - 0.00 in Rain Light Rain
7:53 PM 42.1 °F 37.7 °F 36.0 °F 79% 29.95 in - NW 6.9 mph - 0.02 in   Clear
8:53 PM 37.9 °F 33.5 °F 32.0 °F 79% 29.96 in - NW 5.8 mph - N/A   Partly Cloudy
9:53 PM 37.9 °F 32.7 °F 33.1 °F 83% 29.96 in - NW 6.9 mph - N/A   Partly Cloudy
10:53 PM 37.9 °F 34.4 °F 32.0 °F 79% 29.93 in - NW 4.6 mph - N/A   Clear
11:53 PM 39.0 °F 34.8 °F 32.0 °F 76% 29.94 in - WSW 5.8 mph - N/A   Clear